{"data":{"norad_id":43880,"epoch":"2026-05-24T18:35:34.690848Z","epoch_age_seconds":90936,"freshness":"FRESH","line1":"1 43880U 18111E   26144.77470707  .00028353  00000+0  61165-3 0  9993","line2":"2 43880  97.5851  72.1148 0009925  60.2248 299.9986 15.44477012407165","mean_motion":15.44477012,"eccentricity":0.0009925,"inclination_deg":97.5851,"raan_deg":72.1148,"arg_perigee_deg":60.2248,"mean_anomaly_deg":299.9986,"bstar":0.00061165,"rev_number":40716,"period_min":93.235444024854,"perigee_km":426.15523317186,"apogee_km":439.67517179379,"semimajor_km":6811.0522024828,"source":"CELESTRAK","updated_at":"2026-05-25T13:38:23.289475Z"}}